Regional Weather Roundup
Issued by NWS Goodland, KS

Home | Current Version | Previous Version | Text Only | Print | Product List | Glossary On
Versions: 1 2 3 4 5 6 7 8 9 10 11 12 13 14 15 16 17 18 19 20 21 22 23 24 25 26 27 28 29 30 31 32 33 34 35 36 37 38 39 40 41 42 43 44 45 46 47 48 49 50
000
ASUS43 KGLD 281508
RWRGLD

GOODLAND FORECAST AREA HOURLY WEATHER ROUNDUP
NATIONAL WEATHER SERVICE GOODLAND KS
900 AM MDT TUE APR 28 2015

...OFFICIAL OBSERVATIONS...

CITY           SKY/WX    TMP DP  RH WIND       PRES   REMARKS
GOODLAND KS    SUNNY     50  41  71 N14       30.34R
HILL CITY KS   MOSUNNY   53  43  68 N12       30.29R
IMPERIAL NEB   PTSUNNY   50  40  68 N13       30.34S
MCCOOK NEB     SUNNY     53  42  66 N15       30.32R
AKRON CO       CLOUDY    44  40  85 CALM      30.36R
BURLINGTON CO  MOSUNNY   47  40  76 N12       30.35R
LIMON CO       CLOUDY    44  36  73 NE6       30.36R
$$

...UNOFFICIAL OBSERVATIONS...

CITY           SKY/WX    TMP DP  RH WIND       PRES   REMARKS
COLBY KS       SUNNY     52  45  76 N12       30.33R
GOVE KS          N/A     53  32  45 MISG        N/A
LENORA KS        N/A     51  32  48 MISG        N/A
NORTON KS      SUNNY     54  39  58 N10       30.29
SHARON SPRINGS   N/A     49  44  84 N8          N/A
TRIBUNE KS     SUNNY     52  46  82 N8        30.33R
KIT CARSON CO    N/A     48  40  74 MISG        N/A
YUMA CO          N/A     45  41  85 N6          N/A
$$



USA.gov is the U.S. government's official web portal to all federal, state and local government web resources and services.